ORCA-6 (49015 NORAD) Tracking and Keplerian Element Data

This shows tracking and keplerian element data for the satellite.

Feedback or suggestion? Click here.




ElementValue
Catalog49015
NameORCA-6
Epoch Orbit1340
Epoch Day269.1410724
Epoch Year2021
RAAN219.6889
Inclination51.6241
Eccentricity0.0008934
Argument of Perigee224.2536
Mean Anonmoly135.7728
Mean Motion15.24167308
Decay Rate0.00010655
L11 49015U 21013E 21269.14107240 .00010655 00000-0 44440-3 0 9991
L22 49015 51.6241 219.6889 0008934 224.2536 135.7728 15.24167308 13409

Live tracking and technical data element details for ORCA-6 (NORAD 49015). ORCA-6 can be tracked NOW for your location showing map with azimuth and elevation plus other details from your city location.

Track the satellite on the map from your city or location and see movement details for azimuth, elevation, latitude, longitude, range, height, and movement on the map or in text.







IsCatalogInMostPopularTable: catalog: 49015, numindb: 17
Update: records affected: 1



GetName: 49015 ORCA-6

Hit Count: updated at: Sun, 26 Sep 2021 16:06:41 GMT